Погода в Лехтусях

Россия / Санкт-Петербург и Ленинградская область     60°17′11″N   30°33′40″E
темп.,
°C
ветер,
м/с
пор.,
м/с
влажн.,
%
обл.,
%
осадки,
мм/ч
давл.,
гПа
погр.,
м
7 июля, чт
чт700:00+14ююз2279100 0.0 101124
03:00+14зюз1181100 0.0 101011
06:00+15сз117599 0.0 101062
09:00+19вюв1156100 0.0 1010820
12:00+22ююз224299 0.0 10092120
15:00+20з2457100 0.2 1010479
18:00+21зюз583668 0.1 10101519
21:00+17зюз38613 0.1 1011364
8 июля, пт
пт800:00+13юз310845 0.0 1012233
03:00+13зюз311875 0.0 1013403
06:00+14зюз388860 0.0 1014525
09:00+17зюз4670100 0.1 1015989
12:00+21зюз464962 0.0 10151584
15:00+21зюз563855 0.0 10151524
18:00+20зюз464965 0.0 1015969
21:00+16зюз266995 0.0 1015297
9 июля, сб
сб900:00+14зюз1276100 0.0 101568
03:00+14ююз1183100 0.1 101512
06:00+14ююв1289100 0.4 101482
09:00+17ююв237666 0.8 1014475
12:00+19ююв028085 2.4 1012182
15:00+18ссв018697 4.3 101115
18:00+16всв359574 2.5 1011209
21:00+15в2697100 4.3 1011201
10 июля, вс
вс1000:00+13в289878 0.0 1010186
03:00+15юв2493100 0.0 100984
06:00+14ююв1291100 0.0 100942
09:00+19ю127144 0.1 1009394
12:00+23вюв2445100 0.0 10091399
15:00+23вюв2350100 0.0 1009882
18:00+23св1152100 0.0 1009772
21:00+18ссв237887 0.0 100956
11 июля, пн
пн1100:00+16св148594 0.0 101093
03:00+15вюв119252 0.0 101011
06:00+16всв1388100 0.0 1009100
09:00+21в2364100 0.0 1010673
12:00+21вюв2472100 0.1 1010147
15:00+25юв3552100 0.2 10101753
18:00+24св2360100 0.3 1010593
21:00+18св3891100 0.9 1010249